| time (UTC) | temp F | wind direction | speed MPH | gust MPH | rain 1hr in | rain 24hr in | rain mn in | humidity % | barometer mb |
| 20260504234017 | 0 | 0.0 | 0.0 | 0.00 | 0.00 | 0.00 | |||
| 20260504233017 | 0 | 0.0 | 0.0 | 0.00 | 0.00 | 0.00 | |||
| 20260504232037 | 0 | 0.0 | 0.0 | 0.00 | 0.00 | 0.00 | |||
| 20260504230517 | 0 | 0.0 | 0.0 | 0.00 | 0.00 | 0.00 | |||
| 20260504225517 | 0 | 0.0 | 0.0 | 0.00 | 0.00 | 0.00 | |||
| 20260504224517 | 0 | 0.0 | 0.0 | 0.00 | 0.00 | 0.00 | |||
| 20260504224016 | 0 | 0.0 | 0.0 | 0.00 | 0.00 | 0.00 | |||
| 20260504223016 | 0 | 0.0 | 0.0 | 0.00 | 0.00 | 0.00 | |||
| 20260504221537 | 0 | 0.0 | 0.0 | 0.00 | 0.00 | 0.00 | |||
| 20260504220537 | 0 | 0.0 | 0.0 | 0.00 | 0.00 | 0.00 | |||
| 20260504215517 | 76 | 0.0 | 0.0 | 0.00 | 0.00 | 0.00 | 46 | 1014.3 | |
| 20260504213517 | 77 | 0.0 | 0.0 | 0.00 | 0.00 | 0.00 | 47 | 1014.4 | |
| 20260504212517 | 77 | 0.0 | 0.0 | 0.00 | 0.00 | 0.00 | 43 | 1014.4 | |
| 20260504211517 | 77 | 0.0 | 0.0 | 0.00 | 0.00 | 0.00 | 43 | 1014.3 | |
| 20260504210517 | 77 | 0.0 | 0.0 | 0.00 | 0.00 | 0.00 | 41 | 1014.4 | |
| 20260504205517 | 77 | 0.0 | 0.0 | 0.00 | 0.00 | 0.00 | 42 | 1014.5 | |
| 20260504204537 | 77 | 0.0 | 0.0 | 0.00 | 0.00 | 0.00 | 42 | 1014.5 | |
| 20260504203557 | 77 | 0.0 | 0.0 | 0.00 | 0.00 | 0.00 | 43 | 1014.7 | |
| 20260504202516 | 77 | 0.0 | 0.0 | 0.00 | 0.00 | 0.00 | 40 | 1014.7 | |
| 20260504201516 | 78 | 0.0 | 0.0 | 0.00 | 0.00 | 0.00 | 40 | 1014.8 | |
| 20260504200519 | 78 | 0.0 | 0.0 | 0.00 | 0.00 | 0.00 | 42 | 1014.9 | |
| 20260504195517 | 78 | 0.0 | 0.0 | 0.00 | 0.00 | 0.00 | 42 | 1015.0 | |
| 20260504194517 | 78 | 0.0 | 0.0 | 0.00 | 0.00 | 0.00 | 41 | 1015.1 | |
| 20260504193517 | 78 | 0.0 | 0.0 | 0.00 | 0.00 | 0.00 | 40 | 1015.3 | |
| 20260504192517 | 78 | 0.0 | 0.0 | 0.00 | 0.00 | 0.00 | 41 | 1015.4 | |
| 20260504191517 | 78 | 0.0 | 0.0 | 0.00 | 0.00 | 0.00 | 41 | 1015.5 | |
| 20260504190537 | 78 | 0.0 | 0.0 | 0.00 | 0.00 | 0.00 | 41 | 1015.7 | |
| 20260504185517 | 78 | 0.0 | 0.0 | 0.00 | 0.00 | 0.00 | 41 | 1015.9 | |
| 20260504184516 | 78 | 0.0 | 0.0 | 0.00 | 0.00 | 0.00 | 39 | 1016.0 | |
| 20260504183516 | 78 | 0.0 | 0.0 | 0.00 | 0.00 | 0.00 | 40 | 1016.2 | |
| 20260504182517 | 78 | 0.0 | 0.0 | 0.00 | 0.00 | 0.00 | 40 | 1016.3 | |
| 20260504181516 | 79 | 0.0 | 0.0 | 0.00 | 0.00 | 0.00 | 41 | 1016.4 | |
| 20260504180516 | 79 | 0.0 | 0.0 | 0.00 | 0.00 | 0.00 | 42 | 1016.5 | |
| 20260504175517 | 80 | 0.0 | 0.0 | 0.00 | 0.00 | 0.00 | 38 | 1016.6 | |
| 20260504174516 | 80 | 0.0 | 0.0 | 0.00 | 0.00 | 0.00 | 40 | 1016.8 | |
| 20260504173516 | 80 | 0.0 | 0.0 | 0.00 | 0.00 | 0.00 | 39 | 1017.0 | |
| 20260504172516 | 79 | 0.0 | 0.0 | 0.00 | 0.00 | 0.00 | 38 | 1017.1 | |
| 20260504171516 | 79 | 0.0 | 0.0 | 0.00 | 0.00 | 0.00 | 39 | 1017.2 | |
| 20260504170537 | 79 | 0.0 | 0.0 | 0.00 | 0.00 | 0.00 | 39 | 1017.4 | |
| 20260504150517 | 69 | 0.0 | 0.0 | 0.00 | 0.00 | 0.00 | 54 | 1018.4 | |
| 20260504140516 | 53 | 0.0 | 0.0 | 0.00 | 0.00 | 0.00 | 88 | 1018.3 | |
| 20260504130516 | 46 | 0.0 | 0.0 | 0.00 | 0.00 | 0.00 | 86 | 1018.3 | |
| 20260504110516 | 45 | 0.0 | 0.0 | 0.00 | 0.00 | 0.00 | 84 | 1017.8 | |
| 20260504100536 | 46 | 0.0 | 0.0 | 0.00 | 0.00 | 0.00 | 83 | 1017.5 | |
| 20260504081536 | 47 | 0.0 | 0.0 | 0.00 | 0.00 | 0.00 | 81 | 1017.6 | |
| 20260504080516 | 47 | 0.0 | 0.0 | 0.00 | 0.00 | 0.00 | 81 | 1017.7 | |
| 20260504050516 | 53 | 0.0 | 0.0 | 0.00 | 0.00 | 0.00 | 72 | 1018.5 | |
| 20260504045516 | 53 | 0.0 | 0.0 | 0.00 | 0.00 | 0.00 | 72 | 1018.5 | |
| 20260504044516 | 53 | 0.0 | 0.0 | 0.00 | 0.00 | 0.00 | 70 | 1018.5 | |
| 20260504043516 | 54 | 0.0 | 0.0 | 0.00 | 0.00 | 0.00 | 71 | 1018.4 | |
| 20260504042516 | 54 | 0.0 | 0.0 | 0.00 | 0.00 | 0.00 | 69 | 1018.3 | |
| 20260504041516 | 54 | 0.0 | 0.0 | 0.00 | 0.00 | 0.00 | 68 | 1018.4 | |
| 20260504040516 | 55 | 0.0 | 0.0 | 0.00 | 0.00 | 0.00 | 69 | 1018.4 | |
| 20260504035515 | 55 | 0.0 | 0.0 | 0.00 | 0.00 | 0.00 | 68 | 1018.3 | |
| 20260504034515 | 55 | 0.0 | 0.0 | 0.00 | 0.00 | 0.00 | 68 | 1018.3 | |
| 20260504033515 | 56 | 0.0 | 0.0 | 0.00 | 0.00 | 0.00 | 67 | 1018.4 | |
| 20260504032515 | 56 | 0.0 | 0.0 | 0.00 | 0.00 | 0.00 | 66 | 1018.4 | |
| 20260504031515 | 57 | 0.0 | 0.0 | 0.00 | 0.00 | 0.00 | 66 | 1018.3 | |
| 20260504030515 | 57 | 0.0 | 0.0 | 0.00 | 0.00 | 0.00 | 65 | 1018.2 | |
| 20260504025515 | 57 | 0.0 | 0.0 | 0.00 | 0.00 | 0.00 | 66 | 1018.1 | |
| 20260504024517 | 58 | 0.0 | 0.0 | 0.00 | 0.00 | 0.00 | 65 | 1018.0 | |
| 20260504023515 | 58 | 0.0 | 0.0 | 0.00 | 0.00 | 0.00 | 65 | 1017.8 | |
| 20260504022535 | 58 | 0.0 | 0.0 | 0.00 | 0.00 | 0.00 | 64 | 1017.7 | |
| 20260504021556 | 59 | 0.0 | 0.0 | 0.00 | 0.00 | 0.00 | 64 | 1017.6 | |
| 20260504020515 | 59 | 0.0 | 0.0 | 0.00 | 0.00 | 0.00 | 62 | 1017.4 | |
| 20260504015517 | 60 | 0.0 | 0.0 | 0.00 | 0.00 | 0.00 | 61 | 1017.2 | |
| 20260504014537 | 60 | 0.0 | 0.0 | 0.00 | 0.00 | 0.00 | 59 | 1017.0 | |
| 20260504013515 | 61 | 0.0 | 0.0 | 0.00 | 0.00 | 0.00 | 58 | 1017.0 | |
| 20260504012515 | 62 | 0.0 | 0.0 | 0.00 | 0.00 | 0.00 | 57 | 1016.8 | |
| 20260504011517 | 63 | 0.0 | 0.0 | 0.00 | 0.00 | 0.00 | 55 | 1016.8 | |
| 20260504010517 | 64 | 0.0 | 0.0 | 0.00 | 0.00 | 0.00 | 55 | 1016.7 | |
| 20260504005515 | 64 | 0.0 | 0.0 | 0.00 | 0.00 | 0.00 | 54 | 1016.6 | |
| 20260504004517 | 65 | 0.0 | 0.0 | 0.00 | 0.00 | 0.00 | 53 | 1016.6 | |
| 20260504003515 | 66 | 0.0 | 0.0 | 0.00 | 0.00 | 0.00 | 51 | 1016.5 | |
| 20260504002515 | 67 | 0.0 | 0.0 | 0.00 | 0.00 | 0.00 | 50 | 1016.6 | |
| 20260504001515 | 68 | 0.0 | 0.0 | 0.00 | 0.00 | 0.00 | 49 | 1016.5 | |
| 20260504000517 | 68 | 0.0 | 0.0 | 0.00 | 0.00 | 0.00 | 49 | 1016.5 | |
| 20260503235515 | 68 | 0.0 | 0.0 | 0.00 | 0.00 | 0.00 | 47 | 1016.3 |